Theta_e
300 299 298 298 298 298 297 297 297 297 297 296 296 296 296 296 296 298 297 296 298 302 308 304 301 307 312 312 316 323 324 326 323 323 323 322 324 322 323 326 334 333 334 334 335
299 298 298 298 298 298 298 297 296 297 296 296 296 296 296 297 300 299 299 305 307 306 307 306 300 304 310 313 316 322 326 325 319 320 322 321 323 322 322 328 323 328 329 333 335
298 298 298 298 298 298 297 296 296 296 296 296 296 297 298 300 301 301 306 308 307 306 304 307 304 308 310 311 314 320 324 323 322 321 321 320 321 322 321 323 320 323 327 332 336
297 297 298 298 297 297 297 296 296 296 296 299 301 301 300 303 300 301 306 306 304 305 301 303 307 308 308 310 312 317 321 323 323 321 320 320 321 321 321 320 320 321 328 332 334
297 298 298 298 297 297 297 296 296 296 300 302 303 302 303 303 303 305 305 305 305 304 304 304 305 307 307 309 311 314 316 321 323 323 321 322 320 320 322 322 319 322 329 332 332
297 297 297 297 297 296 296 296 296 296 301 302 303 303 304 302 304 304 305 305 305 305 305 306 304 306 307 306 307 315 317 321 322 323 323 323 320 320 321 323 320 323 332 329 331
297 297 297 297 297 296 296 296 296 296 301 302 304 304 304 304 303 304 305 305 306 306 305 305 305 307 306 307 310 311 314 320 323 323 324 323 324 320 319 321 320 318 321 330 328
297 296 296 296 296 296 296 297 296 296 299 300 304 304 304 304 303 305 307 307 307 306 305 305 305 307 307 307 310 310 316 322 322 323 322 323 326 320 318 321 318 316 317 322 331
296 296 296 296 296 296 296 296 296 298 300 302 303 304 304 304 303 307 308 307 306 306 305 305 305 306 307 307 311 313 321 322 324 323 320 323 323 319 319 320 319 318 317 317 323
296 296 296 296 296 296 296 296 296 299 301 302 302 302 304 303 304 307 308 307 307 306 307 306 307 306 306 308 314 313 318 319 324 322 321 322 320 319 319 318 319 318 318 317 316
296 296 296 296 296 296 296 296 296 296 299 299 299 301 302 304 307 307 308 308 307 305 307 304 309 306 308 308 311 313 316 320 320 320 320 321 321 319 318 318 318 319 319 318 318
296 295 296 296 295 296 296 295 296 297 299 298 298 300 302 302 307 307 307 308 306 308 306 307 309 308 307 310 311 314 316 317 321 320 320 320 320 318 318 318 318 318 319 319 318
296 295 296 295 295 296 296 295 296 298 299 298 298 300 302 303 307 306 307 308 309 307 306 309 307 306 309 311 313 311 313 314 321 321 316 319 319 318 317 317 317 318 317 318 319
295 295 295 295 297 296 296 296 297 300 287 293 297 301 303 305 306 306 306 306 307 309 308 308 307 308 311 312 309 311 313 316 321 319 321 313 317 313 317 317 316 317 317 317 316
295 295 295 295 295 296 295 297 300 300 291 293 297 301 303 305 304 305 306 307 306 306 306 309 305 305 308 308 308 310 311 313 315 311 312 313 313 312 312 315 315 316 316 316 315
295 295 295 295 295 295 296 300 300 290 288 294 297 298 300 301 303 303 305 305 305 303 303 306 307 306 306 306 308 308 308 307 307 310 311 312 312 312 312 312 311 311 309 312 313
295 295 295 295 295 295 299 301 291 290 289 290 297 298 298 300 302 302 302 303 306 301 302 301 304 305 306 307 307 306 307 308 308 305 310 307 311 311 310 310 308 306 306 307 309
296 295 295 295 295 296 300 290 287 280 283 294 297 298 299 298 301 301 302 303 304 305 306 303 301 306 306 307 306 308 307 307 307 309 310 308 310 310 305 305 306 305 306 306 306
296 296 295 296 296 297 297 285 287 283 293 297 296 293 292 298 299 299 297 301 303 303 308 308 301 305 306 306 306 307 305 305 305 296 305 306 307 306 303 303 302 303 303 303 304
296 296 296 296 296 297 290 290 286 291 296 296 292 294 289 291 296 294 298 299 300 302 304 306 301 304 304 305 305 307 305 306 302 299 303 304 305 304 303 302 302 302 303 305 304
296 296 297 295 296 295 287 283 284 294 296 297 294 290 295 293 290 295 299 300 297 301 302 305 303 302 303 306 308 306 306 304 303 303 305 305 303 302 302 301 301 302 304 306 307
296 289 296 296 293 284 282 282 294 296 296 296 296 297 296 296 293 293 297 299 298 299 302 303 307 308 308 307 307 307 309 305 302 305 303 305 303 301 301 301 302 304 305 306 306
296 295 296 297 287 285 288 284 293 295 296 296 295 296 297 297 291 297 294 297 297 296 301 301 301 304 304 300 302 307 307 307 305 304 307 304 303 301 301 304 307 305 305 304 305
295 289 295 296 291 287 284 283 289 295 296 297 296 297 295 294 290 291 296 296 298 297 299 301 300 298 299 301 304 307 307 308 305 302 305 307 307 306 304 305 305 305 306 305 307
295 289 291 287 290 287 286 286 288 290 295 296 295 296 294 291 293 292 290 295 297 296 296 293 291 296 299 299 302 303 306 308 310 307 309 306 308 307 306 304 303 304 305 307 307
295 293 293 293 292 289 288 285 292 293 294 294 293 296 295 292 293 291 296 294 294 295 295 295 288 289 288 294 295 300 300 300 302 307 307 307 305 302 303 301 300 299 301 302 302
296 295 295 294 290 288 288 290 293 294 295 295 295 296 296 296 296 296 296 296 295 295 290 288 282 281 286 287 289 289 294 300 301 301 303 304 303 299 299 299 298 298 298 299 300
Wind_Speed
6 7 8 7 7 9 10 12 14 17 20 21 22 22 22 24 27 27 28 20 15 11 17 15 20 21 18 20 18 10 5 15 17 15 5 3 5 2 7 3 5 1 5 12 30
6 7 7 7 7 8 9 11 15 18 20 23 24 23 21 22 25 19 7 6 8 9 15 14 19 16 10 17 16 7 13 19 7 5 6 4 7 1 5 9 9 9 17 17 35
7 8 7 8 8 8 10 13 16 19 22 25 21 19 18 19 20 6 3 3 10 7 11 11 14 12 10 17 22 10 13 11 7 13 16 7 6 2 8 5 8 14 9 29 39
7 8 7 7 8 9 9 13 16 20 23 19 17 16 15 14 4 11 6 15 18 21 21 14 11 5 6 6 22 13 19 21 9 11 11 5 8 6 9 3 9 21 13 33 40
7 8 8 8 10 10 10 13 15 20 16 18 14 14 15 8 7 19 19 18 17 17 20 18 13 9 6 7 16 14 10 26 13 19 15 15 9 3 3 1 11 16 19 32 35
7 8 9 10 11 13 13 14 15 18 13 16 11 15 11 5 22 27 22 22 25 22 19 15 12 14 8 11 17 5 16 17 14 10 7 3 6 9 6 4 17 12 13 25 28
7 9 10 11 12 13 14 14 15 17 11 15 11 14 14 11 26 30 28 31 26 20 20 16 14 11 11 5 19 22 5 7 6 10 4 8 2 6 4 1 13 13 13 22 21
7 9 11 12 12 14 16 15 15 13 9 13 9 14 8 18 29 29 30 26 18 14 20 19 15 13 10 10 9 6 2 7 6 8 5 10 13 2 10 5 13 15 9 9 28
8 10 11 11 12 14 15 15 12 6 9 4 6 10 7 24 32 28 22 19 10 4 9 8 14 7 6 6 4 5 4 3 7 16 3 12 3 4 9 5 10 20 14 14 11
9 9 11 10 12 13 15 14 5 7 6 2 8 5 8 28 27 26 19 11 2 3 5 7 7 4 1 4 7 8 5 1 3 6 7 10 3 2 9 5 18 25 19 16 13
8 9 11 9 12 13 13 10 3 2 12 5 9 6 20 28 13 24 15 9 7 8 3 5 1 4 8 15 6 8 11 7 1 5 5 8 12 9 7 11 10 28 27 21 15
9 9 9 9 10 10 11 8 5 3 5 7 10 12 24 22 11 29 17 7 6 3 1 3 3 7 12 13 9 7 9 5 1 9 5 8 9 7 8 10 13 17 25 19 15
9 8 8 8 7 8 9 11 4 1 2 6 10 9 19 15 5 21 22 7 3 4 6 5 3 8 7 1 7 6 6 4 7 7 2 5 3 4 6 17 19 23 24 19 18
7 7 5 5 3 6 7 10 2 4 5 8 9 10 20 9 3 17 19 6 3 2 3 4 7 12 6 4 2 6 3 9 17 7 3 3 1 3 6 8 6 15 26 22 16
6 5 3 1 3 4 7 3 5 2 3 10 7 10 11 8 9 18 14 7 5 5 2 1 6 8 8 4 2 2 6 6 5 4 3 4 3 2 2 2 6 15 27 26 20
6 5 3 1 1 7 6 3 4 6 3 7 7 8 7 13 11 16 14 12 4 6 6 4 4 5 1 4 3 1 7 8 5 3 3 3 2 3 1 1 1 5 16 17 18
6 5 3 1 1 6 1 5 5 6 4 7 4 6 4 7 9 10 9 11 8 7 9 8 5 8 8 5 6 8 6 3 4 4 3 5 3 4 6 5 4 7 15 17 10
6 6 4 2 2 3 4 4 5 2 5 3 3 4 5 7 6 9 5 9 8 7 4 4 6 10 10 4 1 5 2 4 5 3 2 3 2 2 5 9 11 12 13 16 17
6 6 4 4 2 1 2 4 7 7 4 2 1 6 6 4 3 5 6 5 4 9 5 4 5 4 2 4 2 3 5 2 5 3 3 2 4 3 9 11 17 20 20 19 18
8 6 6 6 3 3 4 3 2 4 2 1 3 2 2 4 4 5 5 4 7 9 10 4 3 1 6 4 3 3 2 3 3 3 1 3 3 3 9 9 9 13 20 20 17
8 4 7 6 4 3 3 6 4 5 4 2 3 3 2 1 2 2 2 1 6 7 9 4 2 5 3 6 3 6 3 4 4 3 3 2 2 1 4 5 6 10 15 17 20
7 1 7 9 3 3 3 5 3 3 4 2 1 2 3 2 3 1 2 2 12 6 4 3 3 2 1 2 1 2 2 2 3 2 1 1 2 1 3 5 9 14 14 12 17
6 4 7 11 3 1 2 3 1 3 3 4 1 2 0 2 3 1 2 2 7 7 3 4 3 2 3 5 4 4 2 3 4 2 1 4 3 4 7 11 22 19 21 16 18
6 1 3 6 4 8 6 3 1 2 3 4 3 2 3 2 3 3 1 2 7 9 8 0 3 3 4 3 0 2 2 1 3 2 3 3 3 5 7 7 16 17 16 14 15
8 3 5 2 2 5 4 5 5 4 2 6 2 3 4 3 2 1 2 3 3 12 5 4 3 4 3 5 2 3 3 1 3 3 2 3 2 5 8 8 11 12 15 16 16
8 6 5 4 13 7 1 6 9 4 6 4 3 5 4 4 4 6 3 2 2 5 4 4 1 2 4 6 6 3 4 4 3 3 5 6 5 5 8 9 15 16 15 15 15
18 11 5 9 5 4 5 7 9 11 6 4 8 5 4 3 5 3 3 2 3 2 2 3 3 3 4 6 7 5 4 1 1 2 3 4 2 4 5 10 15 17 18 17 18
Wind_Direction
328 326 327 328 325 325 330 335 334 329 331 328 326 327 325 323 317 312 300 299 294 301 303 274 241 247 254 268 237 232 219 214 204 192 156 111 143 72 101 85 62 240 285 281 183
315 320 323 318 317 318 325 332 329 328 330 326 325 327 325 323 321 332 349 97 339 293 305 293 253 263 286 254 240 221 220 217 176 155 156 124 116 32 74 73 18 355 305 256 180
306 314 316 320 321 325 330 331 329 328 327 327 333 331 328 325 327 7 33 20 296 290 303 294 254 288 275 253 246 223 233 208 176 150 139 126 86 96 103 62 20 331 292 181 177
304 310 310 315 318 324 328 331 329 326 330 335 336 333 328 324 334 357 262 269 289 286 294 286 268 228 267 266 245 257 241 215 185 151 130 109 101 95 97 93 357 340 213 183 181
306 313 310 317 319 322 330 329 328 327 333 335 333 337 330 316 293 333 326 304 301 301 296 285 269 232 220 236 298 256 286 228 221 185 124 113 80 86 243 18 341 353 179 191 186
309 316 314 320 322 324 331 330 327 324 324 336 326 334 328 284 345 339 324 311 302 287 287 276 245 248 230 235 270 255 228 243 181 151 168 118 77 354 109 189 350 4 202 198 199
308 314 318 323 322 322 328 329 325 319 312 333 319 319 312 275 341 334 318 305 304 275 257 269 240 218 206 287 238 262 309 214 192 195 126 114 293 255 68 97 315 344 348 211 207
305 311 321 321 324 324 331 331 323 314 301 315 308 318 273 346 341 338 327 317 308 278 238 265 225 231 215 248 284 197 296 212 166 189 185 118 210 11 41 75 355 357 358 283 228
296 306 316 322 323 327 335 332 324 338 316 301 317 309 285 343 341 342 346 340 342 236 242 221 200 200 201 251 248 143 183 170 166 185 132 160 169 352 336 3 329 321 332 331 253
293 301 308 320 320 331 339 334 321 40 19 354 351 315 314 336 342 352 355 352 14 101 99 168 187 172 85 244 181 159 143 23 169 146 145 148 103 317 279 351 293 291 309 315 315
285 299 305 318 324 336 347 347 347 257 42 48 340 289 321 345 3 14 351 5 59 39 32 68 112 202 210 229 260 114 146 121 174 84 91 163 209 245 263 294 225 277 290 296 296
281 296 302 314 325 338 353 37 24 313 314 8 355 330 341 348 334 11 23 34 29 34 17 77 343 207 226 228 277 90 120 112 106 145 91 159 218 216 186 245 254 257 265 271 287
275 291 297 313 325 333 2 10 2 72 12 327 345 334 346 343 351 357 8 351 20 24 60 70 220 232 142 252 48 53 107 130 125 154 251 117 251 196 220 220 247 262 267 267 272
272 283 290 314 322 332 354 351 23 117 69 323 347 4 352 2 359 4 2 350 333 34 183 122 300 92 114 326 16 66 75 93 119 150 147 242 291 224 220 243 268 289 277 274 275
260 271 281 307 302 329 342 18 122 105 40 319 318 342 25 51 309 0 359 351 2 305 271 41 7 80 105 242 307 330 67 81 97 70 91 352 67 269 115 230 264 271 280 283 290
253 250 248 245 287 341 347 126 136 45 262 332 332 350 8 1 360 1 23 18 327 351 16 16 351 54 341 315 28 170 66 54 60 47 35 316 111 325 250 176 308 282 321 292 292
238 245 236 160 353 335 313 157 37 112 348 306 333 355 337 343 358 12 14 34 15 16 2 338 5 332 25 39 15 53 55 40 18 14 207 331 63 248 315 308 359 334 11 27 8
236 240 218 197 330 344 172 44 81 209 231 280 341 320 52 349 6 358 16 19 20 0 35 38 343 0 342 53 50 26 60 139 171 174 153 8 234 21 298 22 38 35 27 26 31
238 225 231 220 302 310 200 49 201 190 176 213 65 58 347 8 43 39 13 19 341 0 8 358 314 330 271 327 15 328 47 174 106 24 64 294 293 96 7 26 22 24 27 20 22
224 215 216 223 258 179 83 230 200 197 141 104 126 141 102 313 49 58 14 314 342 356 333 348 346 333 291 329 8 76 160 57 9 84 330 346 2 323 360 356 357 9 19 24 28
213 201 194 204 190 182 157 216 220 210 146 167 193 123 154 136 122 88 343 251 355 321 325 316 107 300 26 20 6 357 29 47 107 106 143 122 285 290 2 350 350 2 26 33 39
195 59 180 176 98 52 136 192 159 158 146 156 161 134 146 166 95 124 145 170 354 327 4 328 327 56 102 213 220 98 105 62 114 232 12 115 266 6 17 9 15 12 8 30 29
197 179 180 177 144 148 157 307 230 138 182 157 187 190 110 96 88 180 244 283 11 26 26 323 344 46 358 2 8 32 22 77 90 53 232 123 261 16 54 15 2 351 352 357 4
187 102 166 173 151 134 142 200 99 213 171 154 139 142 95 70 41 185 327 1 357 10 5 51 72 143 181 207 261 297 10 85 99 96 179 217 291 314 333 350 355 4 8 5 359
203 220 167 205 232 129 110 134 141 167 222 185 27 217 154 109 24 48 294 341 32 8 33 75 104 9 335 10 319 252 277 144 185 166 190 210 262 299 327 336 21 35 35 26 15
189 165 156 108 143 113 217 215 164 179 150 224 186 183 166 153 178 182 162 133 195 1 47 12 148 92 319 351 358 281 302 260 222 177 230 266 287 2 52 50 38 31 30 29 19
203 182 187 158 133 109 197 183 193 145 208 209 167 136 170 205 171 130 130 149 139 109 97 70 96 53 275 344 339 348 215 195 154 195 182 203 193 349 32 56 40 29 28 19 11